Home   Weather   Bochum   Past weeks

Flag for Germany Past Weather in Bochum, North Rhine-Westphalia, Germany — Yesterday and Last 2 Weeks

Now
27 °F

Sunny.


Feels Like: 21 °F
Forecast: 19 / 32 °F
Wind: 5 mph from Northeast

Location: Dortmund / Wickede

Current Time: Jan 18, 2017 at 5:13:03 pm

Latest Report: Jan 18, 2017 at 4:20 pm


Visibility: 10 mi

Pressure: 30.66 "Hg

Humidity: 80%

Dew Point: 21 °F

Location of BochumLocation

Past Weather in Bochum — Graph

°F

Bochum Temperature Yesterday

Maximum temperature yesterday: 27 °F (at 5:20 am)
Minimum temperature yesterday: 21 °F (at 8:20 am)
Average temperature yesterday: 24 °F

High & Low Weather Summary for the Past Weeks

 TemperatureHumidityPressure
High43 °F (Jan 11, 2:20 pm)100% (Jan 8, 6:20 am)30.72 "Hg (Jan 8, 6:20 am)
Low16 °F (Jan 6, 5:20 am)54% (Jan 6, 3:50 pm)29.06 "Hg (Jan 13, 5:20 am)
Average32 °F82%30.12 "Hg
* Reported Jan 3 3:20 pm — Jan 18 3:50 pm, Bochum, Weather by CustomWeather, © 2017

Note: Actual official high and low records may vary slightly from our data, if they occured in-between our weather recording intervals... More about our weather records

Advertising

Bochum Weather History for the Previous 24 Hours

Scroll right to see more
 ConditionsComfort  
Time TempWeatherWind HumidityBarometerVisibility
3:50 pm
Wed, Jan 18
27 °FPassing clouds.6 mph74%30.66 "HgN/A
3:20 pm27 °FPassing clouds.6 mph74%30.66 "HgN/A
2:50 pm25 °FPassing clouds.6 mph80%30.66 "HgN/A
2:20 pm25 °FSunny.5 mph80%30.66 "Hg10 mi
1:50 pm25 °FClear.6 mph86%30.66 "Hg4 mi
1:20 pm23 °FPartly sunny.3 mph93%30.66 "Hg4 mi
12:50 pm23 °FScattered clouds.2 mph93%30.66 "Hg4 mi
12:20 pm23 °FPartly sunny.1 mph86%30.69 "Hg4 mi
11:50 am21 °FIce fog.2 mph93%30.69 "Hg1 mi
11:20 am21 °FIce fog.3 mph93%30.69 "Hg1 mi
10:50 am21 °FIce fog.2 mph93%30.69 "Hg1 mi
10:20 am21 °FIce fog.No wind93%30.69 "Hg1 mi
9:50 am21 °FIce fog.3 mph86%30.69 "Hg1 mi
9:20 am21 °FIce fog.2 mph86%30.69 "Hg1 mi
8:50 am21 °FIce fog.5 mph86%30.66 "Hg1 mi
8:20 am21 °FIce fog.3 mph86%30.66 "Hg1 mi
7:50 am21 °FIce fog.3 mph93%30.66 "Hg2 mi
7:20 am21 °FIce fog.3 mph93%30.66 "Hg2 mi
6:50 am21 °FIce fog.2 mph93%30.66 "Hg1 mi
6:20 am21 °FIce fog.3 mph93%30.66 "Hg1 mi
5:50 am23 °FIce fog.5 mph86%30.66 "Hg1 mi
5:20 am23 °FIce fog.3 mph93%30.66 "Hg1 mi
9:50 pm
Tue, Jan 17
25 °FIce fog.7 mph86%30.66 "Hg2 mi
9:20 pm25 °FIce fog.5 mph93%30.66 "Hg2 mi
8:50 pm25 °FIce fog.3 mph86%30.66 "Hg3 mi
8:20 pm25 °FClear.2 mph86%30.66 "Hg4 mi
7:50 pm25 °FPassing clouds.6 mph86%30.66 "Hg4 mi
7:28 pm23 °FPassing clouds.3 mph86%30.66 "Hg4 mi
6:50 pm25 °FPassing clouds.3 mph86%30.63 "HgN/A
6:20 pm25 °FPassing clouds.6 mph86%30.63 "HgN/A
5:50 pm25 °FLow clouds.7 mph86%30.63 "Hg4 mi
5:20 pm25 °FLow clouds.7 mph86%30.63 "Hg4 mi
Weather by CustomWeather, © 2017

See weather overviewHow to use our weather pages